LATEST WEATHER OBSERVATIONS RECORDED AT FUA'AMOTU AIRPORT
DATE TIME CLOUD WIND KT TEMP
(C)
DewPoint
(C)
RH(%) WEATHER MSL PRESS.
(MB)
27.05.2018 02:00AM CLOUDY SE 12 23.6 21.3 86.96181 NIL 1015.5
27.05.2018 01:00AM CLOUDY SE 11 24 21.8 87.53205 DRIZZLE 1015.6
27.05.2018 12:00AM CLOUDY S 10 24.1 22.9 93.0251 NIL 1015.7
26.05.2018 11:00PM CLOUDY S 8 25 23 88.68834 NIL 1015.7
26.05.2018 10:00PM CLOUDY W 4 24.7 23.2 91.38716 NIL 1015.6
26.05.2018 09:00PM CLOUDY W 4 25 23.6 91.95821 NIL 1015.6
26.05.2018 08:00PM CLOUDY W 3 24.5 23.8 95.89025 NIL 1015.1
26.05.2018 07:00PM CLOUDY W 3 25 24.3 95.9056 NIL 1014.5
26.05.2018 06:00PM CLOUDY W 6 26.3 24.4 89.32666 NIL 1014.2
26.05.2018 05:00PM CLOUDY W 9 27.7 23.9 79.85341 NIL 1014.2
26.05.2018 04:00PM CLOUDY W 10 27.5 24.4 83.25 RECENT SHOWERS 1013.8
26.05.2018 03:00PM CLOUDY N 9 29 23.5 72.2865 NIL 1014
26.05.2018 02:00PM CLOUDY N 10 29.5 23.8 71.51107 NIL 1014.1
26.05.2018 01:00PM CLOUDY N 8 28.6 24 76.23758 NIL 1014.9
26.05.2018 12:00PM CLOUDY NW 7 27.4 24.7 85.25316 NIL 1015.9
26.05.2018 11:00AM CLOUDY NW 6 26.5 25.1 92.04591 NIL 1016.2
26.05.2018 10:00AM CLOUDY N 6 26 25.3 95.93604 NIL 1016
26.05.2018 09:00AM CLOUDY N 3 25.4 24.8 96.49194 NIL 1015.7
26.05.2018 08:00AM PARTLY CLOUDY NE 5 24 24 100 NIL 1015
26.05.2018 07:00AM CLOUDY VARIABLE 3 23.6 23.5 99.39954 FOG 1014.2
26.05.2018 06:00AM PARTLY CLOUDY NE 4 23 22 94.10911 MIST 1013
26.05.2018 05:00AM FINE  VARIABLE 3 23 23 100 NIL 1014
26.05.2018 04:00AM PARTLY CLOUDY CALM 0 25 24 94.19612 NIL 1014
26.05.2018 03:00AM FINE  VARIABLE 3 24 23 94.15286 RECENT SHOWERS 1014